Location: Arlington Heights
(34.0422°N, 118.3189°W)
Time: 02:35:19
(UTC+00:00)

X-37B - Pass Details

Date: 26 June 2022
Orbit: 328 x 343 km, 45.0° (Epoch: 27 July)

Event Time Altitude Azimuth Distance (km) Brightness Sun altitude
Rises 11:59:18 0° 296° (WNW) 2,112 4.0 -8.6°
Reaches altitude 10° 12:01:22 10° 288° (WNW) 1,274 2.9 -8.3°
Maximum altitude 12:04:04 38° 218° (SW) 534 0.8 -7.8°
Drops below altitude 10° 12:06:45 10° 147° (SSE) 1,274 3.2 -7.3°
Sets 12:08:49 0° 139° (SE) 2,111 4.4 -7.0°
